Madison, WI

1:57 AM CST on December 16, 2019 (GMT -0600)
Dane County Regional-Truax

Weather History for KMSN - November, 2019

Change the Weather History Date:

Friday, November 22, 2019

  Actual Average Record
Temperature  
Mean Temperature 28 °F 33 °F  
Max Temperature 34 °F 40 °F 64 °F (1913)
Min Temperature 23 °F 25 °F 0 °F (1929)
Degree Days  
Heating Degree Days 36 32  
Month to date heating degree days 780 590  
Since 1 July heating degree days 1379 1303  
Cooling Degree Days 0 0  
Month to date cooling degree days 0 0  
Year to date cooling degree days 656 568  
Moisture  
Dew Point 19 °F    
Average Humidity 70    
Maximum Humidity 84    
Minimum Humidity 56    
Precipitation  
Precipitation T in 0.08 in 1.20 in (1963)
Month to date precipitation 1.49 1.77  
Year to date precipitation 43.72 32.12  
Snow  
Snow T in 0.20 in 4.30 in (1909)
Month to date snowfall 7.6 1.9  
Since 1 July snowfall 15.7 2.4  
Since 1 September snowfall 15.7 2.4  
Snow Depth 0.00 in    
Sea Level Pressure  
Sea Level Pressure 30.16 in    
Wind  
Wind Speed 5 mph ()    
Max Wind Speed 17 mph    
Max Gust Speed 26 mph    
Visibility 10.0 miles    
Events      
T = Trace of Precipitation, MM = Missing Value Source: Averaged Metar Reports

Daily Weather History Graph

Daily Weather History Graph

Search for Another Location

Airport or City:

Astronomy

Nov. 22, 2019 Rise Set
Actual Time 6:58 AM CST 4:27 PM CST
Civil Twilight 6:27 AM CST 4:59 PM CST
Nautical Twilight 5:52 AM CST 5:33 PM CST
Astronomical Twilight 5:18 AM CST 6:07 PM CST
Moon 1:54 AM CST (11/22) 2:37 PM CST (11/22)
Length of Visible Light 10h 31m
Length of Day
9h 29m
Waning Crescent, 19% of the Moon is Illuminated
Nov 22
Waning Crescent
Nov 26
New
Dec 4
First Quarter
Dec 11
Full
Dec 18
Last Quarter

Hourly Weather History & Observations

Time (CST) Temp. Windchill Dew Point Humidity Pressure Visibility Wind Dir Wind Speed Gust Speed Precip Events Conditions
12:53 AM 30.0 °F 21.1 °F 21.9 °F 72% 30.10 in 10.0 mi WNW 10.4 mph - N/A   Overcast
1:53 AM 30.0 °F 23.2 °F 21.0 °F 69% 30.12 in 10.0 mi NNW 6.9 mph - N/A   Overcast
2:53 AM 28.0 °F 18.1 °F 19.9 °F 72% 30.13 in 10.0 mi NNW 11.5 mph - N/A   Overcast
4:53 AM 25.0 °F 14.8 °F 18.0 °F 75% 30.18 in 10.0 mi NNW 10.4 mph - N/A   Overcast
6:53 AM 24.1 °F 16.0 °F 17.1 °F 75% 30.22 in 10.0 mi North 6.9 mph - 0.00 in   Overcast
7:53 AM 24.1 °F 18.2 °F 16.0 °F 71% 30.24 in 10.0 mi NW 4.6 mph - N/A   Overcast
8:53 AM 24.1 °F 16.0 °F 16.0 °F 71% 30.25 in 10.0 mi NNW 6.9 mph - N/A   Mostly Cloudy
9:53 AM 25.0 °F 16.3 °F 17.1 °F 72% 30.26 in 10.0 mi NW 8.1 mph - N/A   Mostly Cloudy
10:53 AM 28.0 °F 20.8 °F 19.0 °F 69% 30.25 in 10.0 mi North 6.9 mph - N/A   Scattered Clouds
11:53 AM 28.9 °F - 18.0 °F 64% 30.22 in 10.0 mi Calm Calm - N/A   Partly Cloudy
12:53 PM 32.0 °F 27.5 °F 19.9 °F 61% 30.19 in 10.0 mi South 4.6 mph - N/A   Partly Cloudy
1:53 PM 32.0 °F 28.7 °F 19.0 °F 59% 30.17 in 10.0 mi Variable 3.5 mph - N/A   Partly Cloudy
2:53 PM 33.1 °F 27.7 °F 19.0 °F 56% 30.17 in 10.0 mi WSW 5.8 mph - N/A   Partly Cloudy
3:53 PM 33.1 °F 30.0 °F 19.0 °F 56% 30.16 in 10.0 mi SW 3.5 mph - N/A   Partly Cloudy
4:53 PM 30.0 °F - 19.9 °F 66% 30.15 in 10.0 mi Calm Calm - N/A   Clear
5:53 PM 28.9 °F - 21.0 °F 72% 30.13 in 10.0 mi Calm Calm - N/A   Clear
6:53 PM 27.0 °F - 21.0 °F 78% 30.12 in 10.0 mi Calm Calm - N/A   Clear
7:53 PM 26.1 °F 21.9 °F 21.9 °F 84% 30.11 in 10.0 mi SSW 3.5 mph - N/A   Clear
8:53 PM 30.0 °F 26.5 °F 21.9 °F 72% 30.10 in 10.0 mi SW 3.5 mph - N/A   Clear
9:53 PM 28.9 °F 23.9 °F 21.0 °F 72% 30.08 in 10.0 mi Variable 4.6 mph - N/A   Clear
10:53 PM 28.0 °F 22.8 °F 21.0 °F 75% 30.05 in 10.0 mi SSW 4.6 mph - N/A   Clear
11:53 PM 25.0 °F - 19.9 °F 81% 30.04 in 10.0 mi Calm Calm - N/A   Clear